Location: Lafig�re
(44.4503°N, 4.0357°E)
Time: 03:38:21
(UTC+00:00)

Transit 4A - Pass Details

Date: 30 January 2021
Orbit: 866 x 978 km, 66.8° (Epoch: 02 March)

Event Time Altitude Azimuth Distance (km) Brightness Sun altitude
Rises 20:24:26 0° 287° (WNW) 3,676 12.0 -38.1°
Reaches altitude 10° 20:29:06 10° 318° (NW) 2,719 10.9 -39.0°
Maximum altitude 20:31:22 12° 339° (NNW) 2,573 10.5 -39.3°
Enters shadow 20:32:50 11° 353° (N) 2,625 10.4 -39.6°
Drops below altitude 10° 20:33:38 10° 0° (N) 2,702 - -39.7°
Sets 20:38:16 0° 31° (NNE) 3,625 - -40.5°
